Time,TemperatureF,DewpointF,PressureIn,WindDirection,WindDirectionDegrees,WindSpeedMPH,WindSpeedGustMPH,Humidity,HourlyPrecipIn,Conditions,Clouds,dailyrainin,SoftwareType,DateUTC
2013-06-15 01:28:00,50.4,43.8,29.57,NE,45,0.0,7.0,78,0.00,CLR,FEW,0.00,WeatherDisplay:10.37,2013-06-15 00:28:00,
2013-06-15 01:58:00,50.2,43.2,29.57,NE,45,0.0,8.0,77,0.00,CLR,FEW,0.00,WeatherDisplay:10.37,2013-06-15 00:58:00,
2013-06-15 02:28:00,50.4,43.4,29.57,NE,45,0.0,5.0,77,0.00,CLR,FEW,0.00,WeatherDisplay:10.37,2013-06-15 01:28:00,
2013-06-15 02:58:00,50.4,43.1,29.56,NE,45,0.0,6.0,76,0.00,CLR,FEW,0.00,WeatherDisplay:10.37,2013-06-15 01:58:00,
2013-06-15 03:28:00,50.0,42.7,29.57,NE,45,0.0,2.0,76,0.00,CLR,FEW,0.00,WeatherDisplay:10.37,2013-06-15 02:28:00,
2013-06-15 03:58:00,49.5,42.2,29.57,NE,45,0.0,11.0,76,0.00,CLR,FEW,0.00,WeatherDisplay:10.37,2013-06-15 02:58:00,
2013-06-15 04:28:00,49.2,41.6,29.57,NE,45,0.0,16.0,75,0.00,CLR,FEW,0.00,WeatherDisplay:10.37,2013-06-15 03:28:00,
2013-06-15 04:58:00,49.1,41.5,29.57,NE,45,0.0,6.0,75,0.00,CLR,FEW,0.00,WeatherDisplay:10.37,2013-06-15 03:58:00,
2013-06-15 05:28:00,49.1,41.2,29.57,NE,45,0.0,15.0,74,0.00,CLR,FEW,0.00,WeatherDisplay:10.37,2013-06-15 04:28:00,
2013-06-15 05:58:00,49.1,41.2,29.57,NE,45,0.0,12.0,74,0.00,CLR,FEW,0.00,WeatherDisplay:10.37,2013-06-15 04:58:00,
2013-06-15 06:28:00,49.8,41.5,29.59,NE,45,0.0,7.0,73,0.00,CLR,FEW,0.00,WeatherDisplay:10.37,2013-06-15 05:28:00,
2013-06-15 06:58:00,50.4,41.7,29.59,NE,45,0.0,16.0,72,0.00,CLR,FEW,0.00,WeatherDisplay:10.37,2013-06-15 05:58:00,
2013-06-15 07:28:00,51.0,41.9,29.60,NE,45,0.0,5.0,71,0.00,CLR,FEW,0.00,WeatherDisplay:10.37,2013-06-15 06:28:00,
2013-06-15 07:58:00,52.0,42.9,29.60,NE,45,0.0,14.0,71,0.00,CLR,FEW,0.00,WeatherDisplay:10.37,2013-06-15 06:58:00,
2013-06-15 08:28:00,53.2,43.3,29.60,NE,45,0.0,8.0,69,0.00,CLR,FEW,0.00,WeatherDisplay:10.37,2013-06-15 07:28:00,
2013-06-15 08:58:00,54.1,43.8,29.61,NE,45,0.0,4.0,68,0.00,CLR,FEW,0.00,WeatherDisplay:10.37,2013-06-15 07:58:00,
2013-06-15 09:28:00,55.6,44.4,29.61,NE,45,0.0,6.0,66,0.00,CLR,FEW,0.00,WeatherDisplay:10.37,2013-06-15 08:28:00,
2013-06-15 09:58:00,56.7,44.6,29.62,NE,45,0.0,2.0,64,0.00,CLR,FEW,0.00,WeatherDisplay:10.37,2013-06-15 08:58:00,
2013-06-15 10:28:00,57.4,43.6,29.62,NE,45,0.0,8.0,60,0.00,CLR,FEW,0.00,WeatherDisplay:10.37,2013-06-15 09:28:00,
2013-06-15 10:58:00,59.2,43.9,29.62,NE,45,0.0,5.0,57,0.00,CLR,FEW,0.00,WeatherDisplay:10.37,2013-06-15 09:58:00,
2013-06-15 11:28:00,59.9,43.7,29.62,NE,45,0.0,2.0,55,0.00,CLR,FEW,0.00,WeatherDisplay:10.37,2013-06-15 10:28:00,
2013-06-15 11:58:00,60.4,43.6,29.62,NE,45,0.0,2.0,54,0.00,CLR,FEW,0.00,WeatherDisplay:10.37,2013-06-15 10:58:00,
2013-06-15 12:28:00,60.1,43.9,29.62,NE,45,0.0,10.0,55,0.00,CLR,FEW,0.00,WeatherDisplay:10.37,2013-06-15 11:28:00,
2013-06-15 12:58:00,61.0,44.2,29.61,NE,45,0.0,5.0,54,0.00,CLR,FEW,0.00,WeatherDisplay:10.37,2013-06-15 11:58:00,
2013-06-15 13:28:00,62.3,45.0,29.62,NE,45,0.0,2.0,53,0.00,CLR,FEW,0.00,WeatherDisplay:10.37,2013-06-15 12:28:00,
2013-06-15 13:58:00,62.9,45.5,29.62,NE,45,0.0,2.0,53,0.00,CLR,FEW,0.00,WeatherDisplay:10.37,2013-06-15 12:58:00,
2013-06-15 14:28:00,62.0,47.5,29.62,NE,45,0.0,2.0,59,0.00,CLR,FEW,0.00,WeatherDisplay:10.37,2013-06-15 13:28:00,
2013-06-15 14:58:00,64.8,48.2,29.62,NE,45,0.0,2.0,55,0.00,CLR,FEW,0.00,WeatherDisplay:10.37,2013-06-15 13:58:00,
2013-06-15 15:28:00,63.9,44.9,29.62,NE,45,0.0,9.0,50,0.00,CLR,FEW,0.00,WeatherDisplay:10.37,2013-06-15 14:28:00,
2013-06-15 15:58:00,63.7,41.3,29.62,NE,45,0.0,10.0,44,0.00,CLR,FEW,0.00,WeatherDisplay:10.37,2013-06-15 14:58:00,
2013-06-15 16:28:00,66.4,39.3,29.63,NE,45,0.0,14.0,37,0.00,CLR,FEW,0.00,WeatherDisplay:10.37,2013-06-15 15:28:00,
2013-06-15 16:58:00,64.8,41.1,29.63,NE,45,0.0,11.0,42,0.00,CLR,FEW,0.00,WeatherDisplay:10.37,2013-06-15 15:58:00,
2013-06-15 17:28:00,64.8,41.1,29.63,NE,45,0.0,0.0,42,0.00,CLR,FEW,0.00,WeatherDisplay:10.37,2013-06-15 16:28:00,
2013-06-15 17:58:00,64.0,43.9,29.64,NE,45,0.0,6.0,48,0.00,CLR,FEW,0.00,WeatherDisplay:10.37,2013-06-15 16:58:00,
2013-06-15 18:28:00,63.5,46.6,29.64,NE,45,0.0,2.0,54,0.00,CLR,FEW,0.00,WeatherDisplay:10.37,2013-06-15 17:28:00,
2013-06-15 18:58:00,62.8,46.8,29.64,NE,45,0.0,7.0,56,0.00,CLR,FEW,0.00,WeatherDisplay:10.37,2013-06-15 17:58:00,
2013-06-15 19:28:00,62.8,46.8,29.64,NE,45,0.0,0.0,56,0.00,CLR,FEW,0.00,WeatherDisplay:10.37,2013-06-15 18:28:00,
2013-06-15 19:58:00,62.8,46.8,29.64,NE,45,0.0,0.0,56,0.00,CLR,FEW,0.00,WeatherDisplay:10.37,2013-06-15 18:58:00,
2013-06-15 20:28:00,62.8,46.8,29.64,NE,45,0.0,0.0,56,0.00,CLR,FEW,0.00,WeatherDisplay:10.37,2013-06-15 19:28:00,
2013-06-15 20:58:00,62.8,46.8,29.64,NE,45,0.0,0.0,56,0.00,CLR,FEW,0.00,WeatherDisplay:10.37,2013-06-15 19:58:00,
2013-06-15 21:28:00,62.8,46.8,29.64,NE,45,0.0,0.0,56,0.00,CLR,FEW,0.00,WeatherDisplay:10.37,2013-06-15 20:28:00,
2013-06-15 21:58:00,62.8,46.8,29.64,NE,45,0.0,0.0,56,0.00,CLR,FEW,0.00,WeatherDisplay:10.37,2013-06-15 20:58:00,
2013-06-15 22:28:00,56.3,47.0,29.75,NE,45,0.0,11.0,71,0.00,CLR,FEW,0.00,WeatherDisplay:10.37,2013-06-15 21:28:00,
2013-06-15 22:58:00,55.6,46.7,29.76,NE,45,0.0,5.0,72,0.00,CLR,FEW,0.00,WeatherDisplay:10.37,2013-06-15 21:58:00,
2013-06-15 23:28:00,54.9,46.4,29.76,NE,45,0.0,17.0,73,0.00,CLR,FEW,0.00,WeatherDisplay:10.37,2013-06-15 22:28:00,
2013-06-15 23:58:00,54.5,46.4,29.77,NE,45,0.0,9.0,74,0.00,CLR,FEW,0.00,WeatherDisplay:10.37,2013-06-15 22:58:00,